This is the latest recevied weather packets stored in our database for station/object KM6YFK-13. If no packets are shown the sender has not sent any weather packets the latest 1 day(s).
| Time | Temp. | Humidity | Pressure | Rain* | Wind** | Luminosity | Snow |
|---|---|---|---|---|---|---|---|
| 1836274833 | 24.44° C | 93% | 1017 hPa | 0 mm | 0.45 m/s, 218° | 0 W/m² | - |
| 1836274535 | 24.44° C | 93% | 1017 hPa | 0 mm | 0.45 m/s, 292° | 0 W/m² | - |
| 1836274386 | 24.44° C | 93% | 1017 hPa | 0 mm | 0.45 m/s, 228° | 0 W/m² | - |
| 1836274234 | 24.44° C | 93% | 1017 hPa | 0 mm | 0.45 m/s, 230° | 0 W/m² | - |
| 1836273934 | 24.44° C | 93% | 1017 hPa | 0 mm | 0 m/s | 0 W/m² | - |
| 1778051010 | 18.33° C | 87% | 1015.9 hPa | 0 mm | 0 m/s | 0 W/m² | - |
| 1778050710 | 18.33° C | 86% | 1015.9 hPa | 0 mm | 0.45 m/s, 87° | 0 W/m² | - |
| 1778050410 | 18.33° C | 86% | 1015.8 hPa | 0 mm | 0.45 m/s, 46° | 0 W/m² | - |
| 1778050107 | 18.33° C | 86% | 1016 hPa | 0 mm | 0.45 m/s, 333° | 0 W/m² | - |
| 1778049810 | 18.33° C | 86% | 1016 hPa | 0 mm | 0.45 m/s, 1° | 0 W/m² | - |
| 1778049509 | 18.33° C | 86% | 1016 hPa | 0 mm | 0.45 m/s, 134° | 0 W/m² | - |
| 1778049208 | 18.33° C | 85% | 1016.2 hPa | 0 mm | 0.45 m/s, 326° | 0 W/m² | - |
| 1778048908 | 18.33° C | 85% | 1016.2 hPa | 0 mm | 0.45 m/s, 223° | 0 W/m² | - |
| 1778048609 | 18.33° C | 85% | 1016.2 hPa | 0 mm | 0.45 m/s, 9° | 0 W/m² | - |
| 1778048307 | 18.33° C | 85% | 1016.3 hPa | 0 mm | 0 m/s | 0 W/m² | - |
| 1778048009 | 18.33° C | 85% | 1016.3 hPa | 0 mm | 0.45 m/s, 16° | 0 W/m² | - |
| 1778047710 | 18.89° C | 84% | 1016.3 hPa | 0 mm | 0.45 m/s, 171° | 0 W/m² | - |
| 1778047407 | 18.89° C | 84% | 1016.4 hPa | 0 mm | 0.45 m/s, 146° | 0 W/m² | - |
| 1778047108 | 18.89° C | 84% | 1016.4 hPa | 0 mm | 0.45 m/s, 168° | 0 W/m² | - |
| 1778046807 | 18.89° C | 83% | 1016.5 hPa | 0 mm | 0.45 m/s, 166° | 0 W/m² | - |
| 1778046511 | 18.89° C | 83% | 1016.5 hPa | 0 mm | 0.45 m/s, 335° | 0 W/m² | - |
| 1778046209 | 18.89° C | 83% | 1016.5 hPa | 0 mm | 0.45 m/s, 10° | 0 W/m² | - |
| 1778045909 | 19.44° C | 82% | 1016.6 hPa | 0 mm | 0.45 m/s, 213° | 0 W/m² | - |
| 1778045609 | 19.44° C | 81% | 1016.6 hPa | 0 mm | 0.45 m/s, 205° | 0 W/m² | - |
| 1778045307 | 19.44° C | 81% | 1016.6 hPa | 0 mm | 0.45 m/s, 151° | 0 W/m² | - |
* Rain latest hour (hover to see other rain measurements)
** Current wind speed in m/s (hover to see current wind gust speed)